Weather History for KSUX - September, 2012

Change the Weather History Date:

Saturday, September 15, 2012

  Actual Average Record
Temperature  
Mean Temperature 65 °F 64 °F  
Max Temperature 84 °F 77 °F 98 °F (1955)
Min Temperature 45 °F 51 °F 32 °F (2007)
Degree Days  
Heating Degree Days 0 4  
Month to date heating degree days 11 37  
Since 1 July heating degree days 29 52  
Cooling Degree Days 0 3  
Month to date cooling degree days 77 59  
Year to date cooling degree days 1248 836  
Growing Degree Days 14 (Base 50)    
Moisture  
Dew Point 43 °F    
Average Humidity 48    
Maximum Humidity 90    
Minimum Humidity 13    
Precipitation  
Precipitation 0.00 in 0.10 in 2.87 in (1988)
Month to date precipitation 0.45 1.52  
Year to date precipitation 19.59 22.06  
Snow  
Snow 0.00 in 0.00 in 0.00 in ()
Month to date snowfall 0.0 0.0  
Since 1 July snowfall 0.0 0.0  
Since 1 September snowfall 0.0 0.0  
Snow Depth 0.00 in    
Sea Level Pressure  
Sea Level Pressure 30.15 in    
Wind  
Wind Speed 9 mph (SSE)    
Max Wind Speed 20 mph    
Max Gust Speed 26 mph    
Visibility 10 miles    
Events      
T = Trace of Precipitation, MM = Missing Value Source: NWS Daily Summary

Daily Weather History Graph

Daily Weather History Graph

Search for Another Location

Airport or City:

Trip Planner

Search our weather history database for the weather conditions in past years. The results will help you decide how hot, cold, wet, or windy it might be!

Date:

Astronomy

Sep. 15, 2012 Rise Set
Actual Time 7:05 AM CDT 7:34 PM CDT
Civil Twilight 6:37 AM CDT 8:02 PM CDT
Nautical Twilight 6:04 AM CDT 8:35 PM CDT
Astronomical Twilight 5:30 AM CDT 9:09 PM CDT
Moon 6:38 AM CDT (9/15) 7:03 PM CDT (9/15)
Length of Visible Light 13h 24m
Length of Day
12h 28m
Waning Crescent, 0% of the Moon is Illuminated
Sep 15
Waning Crescent
Sep 15
New
Sep 22
First Quarter
Sep 29
Full
Oct 8
Last Quarter

Hourly Weather History & Observations

Time (CDT) Temp. Windchill Dew Point Humidity Pressure Visibility Wind Dir Wind Speed Gust Speed Precip Events Conditions
12:52 AM 60.1 °F - 44.1 °F 55% 30.23 in 10.0 mi SSE 5.8 mph - N/A   Clear
1:52 AM 52.0 °F - 45.0 °F 77% 30.23 in 10.0 mi ESE 5.8 mph - N/A   Clear
2:52 AM 51.1 °F - 44.1 °F 77% 30.23 in 10.0 mi ESE 4.6 mph - N/A   Clear
3:52 AM 50.0 °F - 44.1 °F 80% 30.23 in 10.0 mi SE 6.9 mph - N/A   Clear
4:52 AM 50.0 °F - 44.1 °F 80% 30.22 in 10.0 mi SE 5.8 mph - N/A   Clear
5:52 AM 46.0 °F 43.9 °F 42.1 °F 86% 30.22 in 10.0 mi ESE 4.6 mph - N/A   Clear
6:52 AM 45.0 °F 41.2 °F 42.1 °F 90% 30.24 in 10.0 mi ESE 6.9 mph - N/A   Clear
7:52 AM 48.0 °F - 44.1 °F 86% 30.25 in 10.0 mi SE 6.9 mph - N/A   Clear
8:52 AM 55.0 °F - 46.9 °F 74% 30.23 in 10.0 mi SE 5.8 mph - N/A   Clear
9:52 AM 66.0 °F - 42.1 °F 42% 30.22 in 10.0 mi SSW 10.4 mph - N/A   Clear
10:52 AM 72.0 °F - 41.0 °F 33% 30.20 in 10.0 mi South 10.4 mph - N/A   Clear
11:52 AM 75.9 °F - 36.0 °F 23% 30.19 in 10.0 mi South 13.8 mph 19.6 mph N/A   Clear
12:52 PM 79.0 °F - 37.9 °F 23% 30.15 in 10.0 mi SSW 11.5 mph 19.6 mph N/A   Clear
1:52 PM 82.0 °F - 39.9 °F 22% 30.13 in 10.0 mi SSW 13.8 mph 20.7 mph N/A   Clear
2:42 PM 82.4 °F - 37.4 °F 20% 30.12 in 2.0 mi South 12.7 mph 23.0 mph N/A   Haze
2:49 PM 82.4 °F - 37.4 °F 20% 30.11 in 10.0 mi South 16.1 mph 25.3 mph N/A   Clear
2:52 PM 82.9 °F - 37.9 °F 20% 30.10 in 10.0 mi South 13.8 mph 25.3 mph N/A   Clear
2:59 PM 82.4 °F - 37.4 °F 20% 30.11 in 9.0 mi South 15.0 mph 25.3 mph N/A   Partly Cloudy
3:52 PM 82.9 °F - 37.9 °F 20% 30.09 in 10.0 mi South 13.8 mph 23.0 mph N/A   Clear
4:52 PM 82.0 °F - 39.0 °F 22% 30.07 in 10.0 mi South 15.0 mph 21.9 mph N/A   Clear
5:52 PM 80.1 °F - 39.9 °F 24% 30.07 in 10.0 mi South 12.7 mph - N/A   Clear
6:52 PM 75.9 °F - 42.1 °F 30% 30.07 in 10.0 mi South 10.4 mph - N/A   Clear
7:52 PM 68.0 °F - 44.1 °F 42% 30.06 in 10.0 mi SSE 6.9 mph - N/A   Clear
8:52 PM 66.0 °F - 48.0 °F 52% 30.06 in 10.0 mi SSE 6.9 mph - N/A   Clear
9:52 PM 66.0 °F - 51.1 °F 59% 30.05 in 10.0 mi SSE 6.9 mph - N/A   Clear
10:52 PM 64.9 °F - 53.1 °F 65% 30.04 in 10.0 mi SSE 6.9 mph - N/A   Clear
11:52 PM 66.0 °F - 57.0 °F 73% 30.03 in 10.0 mi South 8.1 mph - N/A   Clear